Time,TemperatureF,DewpointF,PressureIn,WindDirection,WindDirectionDegrees,WindSpeedMPH,WindSpeedGustMPH,Humidity,HourlyPrecipIn,Conditions,Clouds,dailyrainin,SoftwareType,DateUTC
2013-10-01 00:06:00,57.8,9.0,29.54,SSE,165,7.0,7.0,14,0.00,,,0.00,weatherlink.com 1.10,2013-10-01 07:06:00,
2013-10-01 00:21:00,57.6,10.0,29.54,SSE,161,6.0,9.0,15,0.00,,,0.00,weatherlink.com 1.10,2013-10-01 07:21:00,
2013-10-01 00:36:00,57.6,13.0,29.54,SE,145,7.0,8.0,17,0.00,,,0.00,weatherlink.com 1.10,2013-10-01 07:36:00,
2013-10-01 00:51:00,57.3,11.0,29.54,SE,141,6.0,11.0,16,0.00,,,0.00,weatherlink.com 1.10,2013-10-01 07:51:00,
2013-10-01 01:06:00,56.6,13.0,29.54,South,191,6.0,8.0,18,0.00,,,0.00,weatherlink.com 1.10,2013-10-01 08:06:00,
2013-10-01 01:21:00,55.5,12.0,29.54,SSW,203,6.0,7.0,18,0.00,,,0.00,weatherlink.com 1.10,2013-10-01 08:21:00,
2013-10-01 01:36:00,57.0,11.0,29.53,SSW,212,5.0,8.0,16,0.00,,,0.00,weatherlink.com 1.10,2013-10-01 08:36:00,
2013-10-01 01:51:00,55.6,17.0,29.53,SSW,192,2.0,9.0,22,0.00,,,0.00,weatherlink.com 1.10,2013-10-01 08:51:00,
2013-10-01 02:06:00,55.2,17.0,29.53,West,264,6.0,13.0,22,0.00,,,0.00,weatherlink.com 1.10,2013-10-01 09:06:00,
2013-10-01 02:21:00,55.4,23.0,29.53,West,274,3.0,10.0,29,0.00,,,0.00,weatherlink.com 1.10,2013-10-01 09:21:00,
2013-10-01 02:36:00,55.8,19.0,29.52,WSW,238,9.0,13.0,24,0.00,,,0.00,weatherlink.com 1.10,2013-10-01 09:36:00,
2013-10-01 02:51:00,56.3,21.0,29.52,WSW,239,7.0,15.0,25,0.00,,,0.00,weatherlink.com 1.10,2013-10-01 09:51:00,
2013-10-01 03:06:00,56.4,21.0,29.52,West,273,3.0,11.0,25,0.00,,,0.00,weatherlink.com 1.10,2013-10-01 10:06:00,
2013-10-01 03:21:00,56.0,22.0,29.52,NNE,15,1.0,10.0,27,0.00,,,0.00,weatherlink.com 1.10,2013-10-01 10:21:00,
2013-10-01 03:36:00,56.1,24.0,29.52,SW,224,6.0,12.0,29,0.00,,,0.00,weatherlink.com 1.10,2013-10-01 10:36:00,
2013-10-01 03:51:00,56.2,23.0,29.52,SW,222,4.0,16.0,28,0.00,,,0.00,weatherlink.com 1.10,2013-10-01 10:51:00,
2013-10-01 04:06:00,55.9,25.0,29.52,SW,218,10.0,17.0,31,0.00,,,0.00,weatherlink.com 1.10,2013-10-01 11:06:00,
2013-10-01 04:21:00,55.5,26.0,29.52,WSW,243,10.0,13.0,32,0.00,,,0.00,weatherlink.com 1.10,2013-10-01 11:21:00,
2013-10-01 04:36:00,56.1,26.0,29.52,West,259,9.0,19.0,32,0.00,,,0.00,weatherlink.com 1.10,2013-10-01 11:36:00,
2013-10-01 04:51:00,56.3,27.0,29.52,SW,226,13.0,18.0,32,0.00,,,0.00,weatherlink.com 1.10,2013-10-01 11:51:00,
2013-10-01 05:06:00,56.3,27.0,29.52,SW,229,12.0,19.0,33,0.00,,,0.00,weatherlink.com 1.10,2013-10-01 12:06:00,
2013-10-01 05:21:00,56.2,27.0,29.52,WSW,248,14.0,16.0,33,0.00,,,0.00,weatherlink.com 1.10,2013-10-01 12:21:00,
2013-10-01 05:36:00,55.9,26.0,29.52,SW,226,14.0,16.0,32,0.00,,,0.00,weatherlink.com 1.10,2013-10-01 12:36:00,
2013-10-01 05:51:00,55.5,26.0,29.53,WSW,250,8.0,13.0,32,0.00,,,0.00,weatherlink.com 1.10,2013-10-01 12:51:00,
2013-10-01 06:06:00,55.2,27.0,29.53,West,271,9.0,13.0,34,0.00,,,0.00,weatherlink.com 1.10,2013-10-01 13:06:00,
2013-10-01 06:21:00,54.7,26.0,29.53,West,264,9.0,13.0,33,0.00,,,0.00,weatherlink.com 1.10,2013-10-01 13:21:00,
2013-10-01 06:36:00,54.8,26.0,29.54,SW,215,4.0,12.0,33,0.00,,,0.00,weatherlink.com 1.10,2013-10-01 13:36:00,
2013-10-01 06:51:00,55.0,25.0,29.54,West,262,5.0,12.0,32,0.00,,,0.00,weatherlink.com 1.10,2013-10-01 13:51:00,
2013-10-01 07:06:00,55.1,27.0,29.54,SSW,207,3.0,9.0,34,0.00,,,0.00,weatherlink.com 1.10,2013-10-01 14:06:00,
2013-10-01 07:21:00,55.5,27.0,29.55,WNW,287,5.0,11.0,34,0.00,,,0.00,weatherlink.com 1.10,2013-10-01 14:21:00,
2013-10-01 07:36:00,55.4,27.0,29.55,West,264,0.0,9.0,33,0.00,,,0.00,weatherlink.com 1.10,2013-10-01 14:36:00,
2013-10-01 07:51:00,55.7,28.0,29.56,ESE,120,6.0,8.0,35,0.00,,,0.00,weatherlink.com 1.10,2013-10-01 14:51:00,
2013-10-01 08:06:00,55.8,28.0,29.56,SSW,203,2.0,8.0,35,0.00,,,0.00,weatherlink.com 1.10,2013-10-01 15:06:00,
2013-10-01 08:21:00,55.8,28.0,29.57,NW,308,3.0,6.0,34,0.00,,,0.00,weatherlink.com 1.10,2013-10-01 15:21:00,
2013-10-01 08:36:00,56.3,29.0,29.57,SW,226,4.0,12.0,35,0.00,,,0.00,weatherlink.com 1.10,2013-10-01 15:36:00,
2013-10-01 08:51:00,56.7,31.0,29.58,SW,225,7.0,12.0,38,0.00,,,0.00,weatherlink.com 1.10,2013-10-01 15:51:00,
2013-10-01 09:07:00,57.0,31.0,29.58,South,179,6.0,12.0,37,0.00,,,0.00,weatherlink.com 1.10,2013-10-01 16:07:00,
2013-10-01 09:22:00,58.0,32.0,29.59,SSE,164,3.0,4.0,37,0.00,,,0.00,weatherlink.com 1.10,2013-10-01 16:22:00,
2013-10-01 09:37:00,58.3,31.0,29.58,North,354,0.0,8.0,36,0.00,,,0.00,weatherlink.com 1.10,2013-10-01 16:37:00,
2013-10-01 09:52:00,59.0,33.0,29.59,ESE,119,2.0,6.0,38,0.00,,,0.00,weatherlink.com 1.10,2013-10-01 16:52:00,
2013-10-01 10:01:00,59.3,32.0,29.59,SSW,201,2.0,8.0,36,0.00,,,0.00,weatherlink.com 1.10,2013-10-01 17:01:00,
2013-10-01 10:15:00,59.7,32.0,29.59,North,1,1.0,6.0,35,0.00,,,0.00,weatherlink.com 1.10,2013-10-01 17:15:00,
2013-10-01 10:31:00,61.2,32.0,29.59,SW,224,3.0,5.0,34,0.00,,,0.00,weatherlink.com 1.10,2013-10-01 17:31:00,
2013-10-01 10:46:00,62.2,33.0,29.58,NE,47,1.0,6.0,34,0.00,,,0.00,weatherlink.com 1.10,2013-10-01 17:46:00,
2013-10-01 11:01:00,63.4,34.0,29.58,ENE,58,0.0,3.0,33,0.00,,,0.00,weatherlink.com 1.10,2013-10-01 18:01:00,
2013-10-01 11:16:00,64.1,32.0,29.57,WNW,295,1.0,3.0,30,0.00,,,0.00,weatherlink.com 1.10,2013-10-01 18:16:00,
2013-10-01 11:31:00,64.7,33.0,29.57,ENE,58,1.0,4.0,31,0.00,,,0.00,weatherlink.com 1.10,2013-10-01 18:31:00,
2013-10-01 11:46:00,64.7,32.0,29.57,ENE,63,0.0,3.0,30,0.00,,,0.00,weatherlink.com 1.10,2013-10-01 18:46:00,
2013-10-01 12:01:00,66.3,35.0,29.57,South,190,2.0,3.0,31,0.00,,,0.00,weatherlink.com 1.10,2013-10-01 19:01:00,
2013-10-01 12:16:00,65.9,35.0,29.56,ENE,70,1.0,4.0,32,0.00,,,0.00,weatherlink.com 1.10,2013-10-01 19:16:00,
2013-10-01 12:31:00,66.1,31.0,29.56,ENE,69,2.0,4.0,27,0.00,,,0.00,weatherlink.com 1.10,2013-10-01 19:31:00,
2013-10-01 12:46:00,66.3,34.0,29.56,ENE,64,2.0,3.0,30,0.00,,,0.00,weatherlink.com 1.10,2013-10-01 19:46:00,
2013-10-01 13:01:00,67.0,33.0,29.55,NE,47,4.0,6.0,28,0.00,,,0.00,weatherlink.com 1.10,2013-10-01 20:01:00,
2013-10-01 13:16:00,68.4,33.0,29.54,NNE,15,2.0,4.0,27,0.00,,,0.00,weatherlink.com 1.10,2013-10-01 20:16:00,
2013-10-01 13:31:00,67.6,34.0,29.54,NE,43,2.0,3.0,29,0.00,,,0.00,weatherlink.com 1.10,2013-10-01 20:31:00,
2013-10-01 13:39:00,-999.0,-99.9,0.00,North,-999,-999.0,-999.0,-999,0.00,,,0.00,weatherlink.com 1.10,2013-10-01 20:39:00,
2013-10-01 13:51:00,-999.0,-99.9,0.00,North,-999,-999.0,-999.0,-999,0.00,,,0.00,weatherlink.com 1.10,2013-10-01 20:51:00,
2013-10-01 14:05:00,67.1,33.0,29.50,ENE,71,1.0,3.0,28,0.00,,,0.00,weatherlink.com 1.10,2013-10-01 21:05:00,
2013-10-01 14:20:00,67.0,34.0,29.51,NNW,342,0.0,4.0,29,0.00,,,0.00,weatherlink.com 1.10,2013-10-01 21:20:00,
2013-10-01 14:35:00,66.9,34.0,29.51,ENE,76,1.0,5.0,29,0.00,,,0.00,weatherlink.com 1.10,2013-10-01 21:35:00,
2013-10-01 14:50:00,65.0,33.0,29.51,ENE,67,4.0,6.0,30,0.00,,,0.00,weatherlink.com 1.10,2013-10-01 21:50:00,
2013-10-01 15:05:00,65.6,33.0,29.51,NNE,29,1.0,5.0,30,0.00,,,0.00,weatherlink.com 1.10,2013-10-01 22:05:00,
2013-10-01 15:20:00,65.0,33.0,29.51,NE,53,1.0,4.0,30,0.00,,,0.00,weatherlink.com 1.10,2013-10-01 22:20:00,
2013-10-01 15:35:00,65.2,33.0,29.51,NE,52,0.0,4.0,30,0.00,,,0.00,weatherlink.com 1.10,2013-10-01 22:35:00,
2013-10-01 15:50:00,65.2,33.0,29.51,NNE,33,3.0,5.0,30,0.00,,,0.00,weatherlink.com 1.10,2013-10-01 22:50:00,
2013-10-01 16:05:00,64.3,32.0,29.51,NE,50,2.0,3.0,30,0.00,,,0.00,weatherlink.com 1.10,2013-10-01 23:05:00,
2013-10-01 16:20:00,64.4,32.0,29.51,NE,56,2.0,3.0,30,0.00,,,0.00,weatherlink.com 1.10,2013-10-01 23:20:00,
2013-10-01 16:50:00,64.5,31.0,29.51,South,188,8.0,10.0,28,0.00,,,0.00,weatherlink.com 1.10,2013-10-01 23:50:00,
2013-10-01 17:05:00,63.5,30.0,29.51,ESE,102,0.0,5.0,28,0.00,,,0.00,weatherlink.com 1.10,2013-10-02 00:05:00,
2013-10-01 17:21:00,63.0,29.0,29.51,SE,131,1.0,6.0,28,0.00,,,0.00,weatherlink.com 1.10,2013-10-02 00:21:00,
2013-10-01 17:36:00,61.8,29.0,29.51,SSW,203,1.0,4.0,29,0.00,,,0.00,weatherlink.com 1.10,2013-10-02 00:36:00,
2013-10-01 17:51:00,60.1,28.0,29.52,SW,215,2.0,6.0,30,0.00,,,0.00,weatherlink.com 1.10,2013-10-02 00:51:00,
2013-10-01 18:06:00,59.1,29.0,29.52,South,185,3.0,4.0,32,0.00,,,0.00,weatherlink.com 1.10,2013-10-02 01:06:00,
2013-10-01 18:21:00,58.9,29.0,29.52,South,170,6.0,7.0,32,0.00,,,0.00,weatherlink.com 1.10,2013-10-02 01:21:00,
2013-10-01 18:36:00,58.8,29.0,29.53,South,169,7.0,8.0,32,0.00,,,0.00,weatherlink.com 1.10,2013-10-02 01:36:00,
2013-10-01 18:51:00,58.0,30.0,29.53,SSE,148,6.0,8.0,34,0.00,,,0.00,weatherlink.com 1.10,2013-10-02 01:51:00,
2013-10-01 19:06:00,57.5,30.0,29.53,SW,215,5.0,8.0,35,0.00,,,0.00,weatherlink.com 1.10,2013-10-02 02:06:00,
2013-10-01 19:21:00,57.5,32.0,29.54,SW,219,3.0,8.0,38,0.00,,,0.00,weatherlink.com 1.10,2013-10-02 02:21:00,
2013-10-01 19:36:00,58.0,34.0,29.54,SSW,212,3.0,7.0,40,0.00,,,0.00,weatherlink.com 1.10,2013-10-02 02:36:00,
2013-10-01 19:51:00,57.4,34.0,29.54,SW,233,3.0,7.0,42,0.00,,,0.00,weatherlink.com 1.10,2013-10-02 02:51:00,
2013-10-01 20:06:00,57.0,34.0,29.53,SW,226,5.0,10.0,43,0.00,,,0.00,weatherlink.com 1.10,2013-10-02 03:06:00,
2013-10-01 20:21:00,57.0,34.0,29.54,SW,229,4.0,10.0,43,0.00,,,0.00,weatherlink.com 1.10,2013-10-02 03:21:00,
2013-10-01 20:36:00,56.8,34.0,29.54,West,260,7.0,13.0,43,0.00,,,0.00,weatherlink.com 1.10,2013-10-02 03:36:00,
2013-10-01 20:51:00,56.8,34.0,29.54,SW,224,9.0,12.0,43,0.00,,,0.00,weatherlink.com 1.10,2013-10-02 03:51:00,
2013-10-01 21:06:00,55.5,34.0,29.54,West,273,4.0,10.0,44,0.00,,,0.00,weatherlink.com 1.10,2013-10-02 04:06:00,
2013-10-01 21:21:00,55.1,33.0,29.54,WSW,257,4.0,11.0,43,0.00,,,0.00,weatherlink.com 1.10,2013-10-02 04:21:00,
2013-10-01 21:36:00,54.6,34.0,29.54,WSW,250,4.0,9.0,46,0.00,,,0.00,weatherlink.com 1.10,2013-10-02 04:36:00,
2013-10-01 21:51:00,54.7,35.0,29.54,SSW,194,8.0,10.0,47,0.00,,,0.00,weatherlink.com 1.10,2013-10-02 04:51:00,
2013-10-01 22:06:00,54.5,35.0,29.54,West,259,6.0,11.0,48,0.00,,,0.00,weatherlink.com 1.10,2013-10-02 05:06:00,
2013-10-01 22:21:00,54.9,35.0,29.54,WNW,284,4.0,12.0,47,0.00,,,0.00,weatherlink.com 1.10,2013-10-02 05:21:00,
2013-10-01 22:36:00,54.9,35.0,29.54,SW,225,4.0,11.0,47,0.00,,,0.00,weatherlink.com 1.10,2013-10-02 05:36:00,
2013-10-01 22:51:00,53.8,35.0,29.53,NE,39,4.0,11.0,50,0.00,,,0.00,weatherlink.com 1.10,2013-10-02 05:51:00,
2013-10-01 23:06:00,54.5,35.0,29.53,SW,219,10.0,11.0,49,0.00,,,0.00,weatherlink.com 1.10,2013-10-02 06:06:00,
2013-10-01 23:21:00,54.5,36.0,29.53,SW,218,6.0,12.0,50,0.00,,,0.00,weatherlink.com 1.10,2013-10-02 06:21:00,
2013-10-01 23:36:00,54.1,36.0,29.52,West,262,11.0,12.0,51,0.00,,,0.00,weatherlink.com 1.10,2013-10-02 06:36:00,
2013-10-01 23:51:00,53.8,36.0,29.52,SW,231,11.0,12.0,52,0.00,,,0.00,weatherlink.com 1.10,2013-10-02 06:51:00,